Preston, Minnesota, United States (55965)
Lat: 43.67N, Lon: 92.08W
Wx Zone: MNZ095
Local Info
Past Weather Observations for Tuesday, April 26, 2016

NOTE: This archive is for the closest National Weather Service station to Preston. Information may differ from the station used for current weather conditions.

Click here for Long-term Archive

Time Weather Temperature Dewpoint Humidity Pressure Winds Precip Visibility
23:55
Clear
41°F / 5°C 32°F / 0°C 70% 29.95 in
(1014 mb)
E 12.7 mph
(E 20 kph)
- 10SM
23:35
Clear
43°F / 6°C 34°F / 1°C 71% 29.92 in
(1013 mb)
E 11.5 mph
(E 19 kph)
- 10SM
23:15
Clear
43°F / 6°C 34°F / 1°C 71% 29.92 in
(1013 mb)
E 11.5 mph
(E 19 kph)
- 10SM
22:55
Partly Cloudy
43°F / 6°C 36°F / 2°C 76% 29.95 in
(1014 mb)
E 12.7 mph
(E 20 kph)
- 10SM
22:35
Overcast
45°F / 7°C 36°F / 2°C 71% 29.95 in
(1014 mb)
E 12.7 mph
(E 20 kph)
- 10SM
22:15
Overcast
45°F / 7°C 36°F / 2°C 71% 29.95 in
(1014 mb)
E 10.4 mph
(E 17 kph)
- 7SM
21:55
Overcast
45°F / 7°C 37°F / 3°C 76% 29.95 in
(1014 mb)
E 12.7 mph
(E 20 kph)
- 10SM
21:35
Overcast
45°F / 7°C 37°F / 3°C 76% 29.95 in
(1014 mb)
E 11.5 mph
(E 19 kph)
- 10SM
21:15
Overcast
45°F / 7°C 37°F / 3°C 76% 29.95 in
(1014 mb)
E 12.7 mph
(E 20 kph)
- 10SM
20:54
Overcast
45°F / 7°C 37°F / 3°C 76% 29.95 in
(1014 mb)
E 10.4 mph
(E 17 kph)
- 7SM
20:35
Overcast
45°F / 7°C 37°F / 3°C 76% 29.95 in
(1014 mb)
E 16.1 mph
(E 26 kph)
- 10SM
20:15
Overcast
45°F / 7°C 37°F / 3°C 76% 29.95 in
(1014 mb)
E 11.5 mph
(E 19 kph)
- 10SM
19:55
Overcast
45°F / 7°C 37°F / 3°C 76% 29.92 in
(1013 mb)
E 16.1 mph
(E 26 kph)
- 7SM
19:35
Overcast
45°F / 7°C 37°F / 3°C 76% 29.95 in
(1014 mb)
E 16.1 mph
(E 26 kph)
- 10SM
19:15
Overcast
45°F / 7°C 37°F / 3°C 76% 29.92 in
(1013 mb)
E 13.8 mph
(E 22 kph)
- 10SM
18:54
Overcast
45°F / 7°C 37°F / 3°C 76% 29.89 in
(1012 mb)
E 10.4 mph
(E 17 kph)
- 10SM
18:35
Overcast
45°F / 7°C 37°F / 3°C 76% 29.83 in
(1010 mb)
ENE 17.3 mph
(ENE 28 kph)
- 7SM
18:15
Overcast
45°F / 7°C 37°F / 3°C 76% 29.86 in
(1011 mb)
E 15 mph
(E 24 kph)
- 7SM
17:55
Overcast
46°F / 8°C 37°F / 3°C 71% 29.89 in
(1012 mb)
ENE 10.4 mph
(ENE 17 kph)
- 10SM
17:35
Overcast
46°F / 8°C 39°F / 4°C 76% 29.89 in
(1012 mb)
ENE 17.3 mph
(ENE 28 kph)
- 7SM
17:15
Overcast
48°F / 9°C 39°F / 4°C 71% 29.89 in
(1012 mb)
ENE 13.8 mph
(ENE 22 kph)
- 10SM
16:55
Overcast
48°F / 9°C 39°F / 4°C 71% 29.89 in
(1012 mb)
E 15 mph
(E 24 kph)
- 10SM
16:35
Overcast
48°F / 9°C 39°F / 4°C 71% 29.92 in
(1013 mb)
E 15 mph
(E 24 kph)
- 10SM
16:15
Overcast
50°F / 10°C 39°F / 4°C 67% 29.92 in
(1013 mb)
E 13.8 mph
(E 22 kph)
- 10SM
15:55
Overcast
50°F / 10°C 39°F / 4°C 67% 29.92 in
(1013 mb)
ESE 13.8 mph
(ESE 22 kph)
- 10SM
15:35
Overcast
50°F / 10°C 41°F / 5°C 71% 29.92 in
(1013 mb)
ESE 15 mph
(ESE 24 kph)
- 7SM
15:15
Overcast
50°F / 10°C 41°F / 5°C 71% 29.89 in
(1012 mb)
E 13.8 mph
(E 22 kph)
- 10SM
14:55
Overcast
50°F / 10°C 41°F / 5°C 71% 29.89 in
(1012 mb)
E 16.1 mph
(E 26 kph)
- 10SM
14:35
Overcast
50°F / 10°C 41°F / 5°C 71% 29.92 in
(1013 mb)
E 11.5 mph
(E 19 kph)
- 10SM
14:15
Overcast
50°F / 10°C 41°F / 5°C 71% 29.89 in
(1012 mb)
E 16.1 mph
(E 26 kph)
- 10SM
13:54
Overcast
50°F / 10°C 41°F / 5°C 71% 29.89 in
(1012 mb)
E 13.8 mph
(E 22 kph)
- 10SM
13:35
Overcast
50°F / 10°C 41°F / 5°C 71% 29.89 in
(1012 mb)
ENE 15 mph
(ENE 24 kph)
- 10SM
13:15
Overcast
50°F / 10°C 41°F / 5°C 71% 29.89 in
(1012 mb)
E 12.7 mph
(E 20 kph)
- 10SM
12:55
Overcast
50°F / 10°C 41°F / 5°C 71% 29.89 in
(1012 mb)
E 11.5 mph
(E 19 kph)
- 10SM
12:35
Overcast
48°F / 9°C 41°F / 5°C 76% 29.92 in
(1013 mb)
NE 10.4 mph
(NE 17 kph)
- 10SM
12:15
Overcast
48°F / 9°C 41°F / 5°C 76% 29.92 in
(1013 mb)
ENE 12.7 mph
(ENE 20 kph)
- 10SM
11:55
Overcast
48°F / 9°C 41°F / 5°C 76% 29.89 in
(1012 mb)
E 11.5 mph
(E 19 kph)
- 10SM
11:35
Overcast
48°F / 9°C 41°F / 5°C 76% 29.89 in
(1012 mb)
ENE 11.5 mph
(ENE 19 kph)
- 10SM
11:15
Overcast
48°F / 9°C 41°F / 5°C 76% 29.89 in
(1012 mb)
E 11.5 mph
(E 19 kph)
- 10SM
10:54
Overcast
48°F / 9°C 41°F / 5°C 76% 29.92 in
(1013 mb)
E 11.5 mph
(E 19 kph)
- 10SM
10:35
Overcast
46°F / 8°C 41°F / 5°C 82% 29.92 in
(1013 mb)
ENE 8.1 mph
(ENE 13 kph)
- 10SM
10:15
Overcast
46°F / 8°C 41°F / 5°C 82% 29.89 in
(1012 mb)
ENE 8.1 mph
(ENE 13 kph)
- 7SM
09:55
Overcast
46°F / 8°C 41°F / 5°C 82% 29.92 in
(1013 mb)
ENE 5.8 mph
(ENE 9 kph)
- 10SM
09:34
Overcast
45°F / 7°C 41°F / 5°C 87% 29.89 in
(1012 mb)
ESE 10.4 mph
(ESE 17 kph)
- 10SM
09:15
Overcast
46°F / 8°C 41°F / 5°C 82% 29.89 in
(1012 mb)
E 9.2 mph
(E 15 kph)
- 7SM
08:55
Overcast
46°F / 8°C 41°F / 5°C 82% 29.89 in
(1012 mb)
NE 8.1 mph
(NE 13 kph)
- 7SM
08:35
Overcast
46°F / 8°C 41°F / 5°C 82% 29.86 in
(1011 mb)
E 11.5 mph
(E 19 kph)
- 10SM
08:15
Overcast
46°F / 8°C 41°F / 5°C 82% 29.86 in
(1011 mb)
NE 10.4 mph
(NE 17 kph)
- 10SM
07:55
Overcast
46°F / 8°C 41°F / 5°C 82% 29.86 in
(1011 mb)
ENE 8.1 mph
(ENE 13 kph)
- 10SM
07:35
Overcast
45°F / 7°C 43°F / 6°C 93% 29.86 in
(1011 mb)
NE 6.9 mph
(NE 11 kph)
- 10SM
07:15
Overcast
46°F / 8°C 43°F / 6°C 87% 29.86 in
(1011 mb)
ENE 10.4 mph
(ENE 17 kph)
- 7SM
06:55
Overcast
46°F / 8°C 43°F / 6°C 87% 29.86 in
(1011 mb)
NE 6.9 mph
(NE 11 kph)
- 7SM
06:35
Overcast
46°F / 8°C 43°F / 6°C 87% 29.83 in
(1010 mb)
NE 5.8 mph
(NE 9 kph)
- 10SM
06:14
Overcast
46°F / 8°C 43°F / 6°C 87% 29.86 in
(1011 mb)
ENE 5.8 mph
(ENE 9 kph)
- 7SM
05:55
Overcast
46°F / 8°C 43°F / 6°C 87% 29.83 in
(1010 mb)
ENE 6.9 mph
(ENE 11 kph)
- 7SM
05:35
Overcast
46°F / 8°C 43°F / 6°C 87% 29.83 in
(1010 mb)
NE 8.1 mph
(NE 13 kph)
- 7SM
05:15
Overcast
46°F / 8°C 45°F / 7°C 93% 29.83 in
(1010 mb)
NE 10.4 mph
(NE 17 kph)
- 7SM
04:55
Overcast
46°F / 8°C 45°F / 7°C 93% 29.83 in
(1010 mb)
NE 5.8 mph
(NE 9 kph)
- 7SM
04:35
Overcast
Fog And Mist
46°F / 8°C 45°F / 7°C 93% 29.83 in
(1010 mb)
NE 4.6 mph
(NE 7 kph)
- 5SM
04:15
Overcast
Fog And Mist
48°F / 9°C 45°F / 7°C 87% 29.8 in
(1009 mb)
NE 8.1 mph
(NE 13 kph)
- 5SM
03:55
Overcast
Fog And Mist
48°F / 9°C 46°F / 8°C 94% 29.8 in
(1009 mb)
NE 8.1 mph
(NE 13 kph)
- 5SM
03:35
Overcast
Fog And Mist
48°F / 9°C 46°F / 8°C 94% 29.8 in
(1009 mb)
NE 9.2 mph
(NE 15 kph)
- 4SM
03:14
Overcast
Fog And Mist
48°F / 9°C 46°F / 8°C 94% 29.8 in
(1009 mb)
NE 8.1 mph
(NE 13 kph)
- 4SM
02:55
Overcast
Fog And Mist
48°F / 9°C 48°F / 9°C 100% 29.8 in
(1009 mb)
NE 6.9 mph
(NE 11 kph)
- 3SM
02:35
Overcast
Fog And Mist
50°F / 10°C 48°F / 9°C 94% 29.8 in
(1009 mb)
NE 6.9 mph
(NE 11 kph)
- 2 1/2SM
02:15
Overcast
Fog And Mist
50°F / 10°C 48°F / 9°C 94% 29.77 in
(1008 mb)
NE 10.4 mph
(NE 17 kph)
- 2SM
01:54
Overcast
Fog And Mist
50°F / 10°C 48°F / 9°C 94% 29.77 in
(1008 mb)
NE 6.9 mph
(NE 11 kph)
- 4SM
01:35
Overcast
52°F / 11°C 48°F / 9°C 88% 29.77 in
(1008 mb)
NE 8.1 mph
(NE 13 kph)
- 7SM
01:15
Overcast
52°F / 11°C 48°F / 9°C 88% 29.77 in
(1008 mb)
NE 6.9 mph
(NE 11 kph)
- 7SM
00:55
Overcast
54°F / 12°C 50°F / 10°C 88% 29.77 in
(1008 mb)
NNE 9.2 mph
(NNE 15 kph)
- 7SM
00:34
Overcast
54°F / 12°C 50°F / 10°C 88% 29.77 in
(1008 mb)
N 8.1 mph
(N 13 kph)
- 7SM
00:15
Overcast
54°F / 12°C 52°F / 11°C 94% 29.77 in
(1008 mb)
N 8.1 mph
(N 13 kph)
- 7SM
Time Weather Temperature Dewpoint Humidity Pressure Winds Precip Visibility


Weather for websites

WeatherForYou.com, LLC is not responsible for any damages or problems caused by this service. Current weather conditions are obtained from the closest station including government and personal stations which may have varying degrees of accuracy. Weather forecasts are derived from the NOAA NDFD. Like all things, this site belongs to Jesus Christ... He just trusts us to maintain it. If you have any questions or comments email webmaster@weatherforyou.com

Copyright © 2016, WeatherForYou.com LLC. All rights reserved.